DW9186 Weather Reports


time (UTC)temp
F
wind
direction
speed
knots
gust
knots
rain 1hr
in
rain 24hr
in
rain mn
in
humidity
%
barometer
mb
20260906141103 80 265 0.9 1.7 0.00 0.68 0.00 79 1011.5
20260906140603 80 265 0.0 0.9 0.00 0.68 0.00 80 1011.5
20260906140103 79 265 0.0 0.9 0.00 0.68 0.00 81 1011.4
20260906135603 79 263 0.0 1.7 0.00 0.68 0.00 80 1011.4
20260906135103 78 262 0.0 0.9 0.00 0.68 0.00 80 1011.5
20260906134603 78 262 0.0 0.9 0.00 0.68 0.00 82 1011.5
20260906134103 77 262 0.0 0.9 0.00 0.68 0.00 85 1011.5
20260906133603 77 262 0.9 1.7 0.00 0.68 0.00 84 1011.7
20260906133103 76 263 0.9 0.9 0.00 0.68 0.00 85 1011.9
20260906132604 76 263 0.0 0.0 0.00 0.68 0.00 88 1012.0
20260906132104 75 263 0.0 0.9 0.00 0.68 0.00 88 1012.1
20260906131603 75 263 0.0 0.9 0.00 0.68 0.00 91 1012.1
20260906131103 74 263 0.0 0.9 0.00 0.68 0.00 92 1012.2
20260906130603 73 263 0.0 0.9 0.00 0.68 0.00 93 1012.2
20260906130103 73 263 0.0 0.9 0.00 0.68 0.00 93 1012.2
20260906125602 73 263 0.0 0.9 0.00 0.68 0.00 93 1012.2
20260906125103 72 263 0.0 0.9 0.00 0.68 0.00 94 1012.2
20260906124603 72 263 0.9 0.9 0.00 0.68 0.00 94 1012.2
20260906124103 72 263 0.0 0.9 0.00 0.68 0.00 94 1012.1
20260906123603 72 263 0.0 1.7 0.00 0.68 0.00 95 1012.1
20260906122603 71 262 0.0 0.9 0.00 0.68 0.00 95 1012.2
20260906122103 71 262 0.0 0.9 0.00 0.68 0.00 95 1012.2
20260906121603 71 262 0.0 0.9 0.00 0.68 0.00 95 1012.0
20260906121103 71 262 0.0 0.0 0.00 0.68 0.00 95 1012.1
20260906120604 71 262 0.0 0.0 0.00 0.68 0.00 95 1012.0
20260906115603 71 262 0.0 0.9 0.00 0.68 0.68 95 1012.1
20260906114603 71 262 0.0 0.9 0.00 0.68 0.68 95 1012.2
20260906114103 71 262 0.0 0.9 0.00 0.68 0.68 95 1012.1
20260906113603 71 262 0.0 0.9 0.00 0.68 0.68 95 1012.2
20260906113103 71 262 0.0 0.9 0.00 0.68 0.68 95 1012.1
20260906112603 71 262 0.0 0.0 0.00 0.68 0.68 95 1012.0
20260906112103 71 262 0.0 0.9 0.00 0.68 0.68 95 1012.0
20260906111604 71 262 0.0 0.0 0.00 0.68 0.68 94 1011.9
20260906111103 71 262 0.0 0.0 0.00 0.68 0.68 94 1011.7
20260906110603 71 262 0.0 0.9 0.00 0.68 0.68 94 1011.7
20260906110103 71 262 0.0 0.9 0.00 0.68 0.68 94 1011.8
20260906105603 71 262 0.0 0.9 0.00 0.68 0.68 94 1011.8
20260906105102 71 262 0.0 0.9 0.00 0.68 0.68 94 1011.8
20260906104603 71 262 0.0 0.9 0.00 0.68 0.68 94 1011.8
20260906103604 71 262 0.0 0.9 0.00 0.68 0.68 94 1011.4
20260906103103 71 262 0.0 0.9 0.00 0.68 0.68 94 1011.3
20260906102604 71 262 0.0 1.7 0.00 0.68 0.68 94 1011.4
20260906101603 71 262 0.9 1.7 0.00 0.68 0.68 94 1011.0
20260906101103 71 262 0.0 0.9 0.00 0.68 0.68 94 1010.9
20260906100603 71 262 0.0 0.9 0.00 0.68 0.68 94 1010.9
20260906100103 71 262 0.0 0.9 0.00 0.68 0.68 94 1010.8
20260906095603 71 262 0.9 1.7 0.00 0.68 0.68 94 1010.8
20260906095103 71 262 0.0 0.0 0.00 0.68 0.68 93 1010.7
20260906094604 71 262 0.0 0.9 0.00 0.68 0.68 93 1010.7
20260906094103 71 262 0.0 0.9 0.00 0.68 0.68 93 1010.7
20260906093603 71 262 0.0 0.0 0.00 0.68 0.68 93 1010.8
20260906093103 71 262 0.0 0.0 0.00 0.68 0.68 93 1010.8
20260906092603 71 262 0.0 0.9 0.00 0.68 0.68 92 1010.9
20260906092103 72 262 0.0 0.9 0.00 0.68 0.68 92 1011.0
20260906091603 72 262 0.0 0.9 0.00 0.68 0.68 91 1010.8
20260906091103 72 262 0.0 0.9 0.00 0.68 0.68 91 1010.8
20260906090604 72 262 0.9 1.7 0.00 0.68 0.68 91 1010.8
20260906090104 72 263 0.9 2.6 0.00 0.68 0.68 91 1010.9
20260906085104 71 263 1.7 2.6 0.00 0.68 0.68 92 1010.7
20260906084603 71 258 0.9 1.7 0.00 0.68 0.68 92 1010.4
20260906084104 71 257 0.9 1.7 0.01 0.68 0.68 91 1010.3
20260906083604 72 257 0.9 1.7 0.01 0.68 0.68 90 1010.2
20260906083104 72 257 0.9 2.6 0.01 0.68 0.68 89 1010.4
20260906082603 72 257 1.7 2.6 0.02 0.68 0.68 88 1010.6
20260906081604 72 312 0.9 2.6 0.04 0.68 0.68 89 1010.9
20260906081103 71 57 0.9 4.3 0.10 0.68 0.68 90 1010.9
20260906080603 71 24 1.7 2.6 0.11 0.68 0.68 91 1011.1
20260906080103 71 355 1.7 5.2 0.11 0.68 0.68 91 1011.2
20260906075104 71 327 2.6 7.0 0.12 0.68 0.68 93 1011.4
20260906074603 72 323 2.6 12.2 0.14 0.68 0.68 93 1011.5
20260906074103 72 318 2.6 7.0 0.17 0.67 0.67 93 1011.5
20260906073603 72 333 2.6 7.0 0.19 0.67 0.67 93 1011.7
20260906072104 72 330 1.7 4.3 0.18 0.65 0.65 92 1011.8
20260906071103 73 331 0.9 1.7 0.13 0.58 0.58 94 1011.6
20260906070603 73 338 0.9 1.7 0.20 0.57 0.57 94 1011.5
20260906065603 74 340 0.9 2.6 0.48 0.56 0.56 94 1011.6
20260906065104 74 340 0.9 1.7 0.53 0.56 0.56 94 1011.5
20260906064604 74 340 0.9 1.7 0.54 0.54 0.54 94 1011.3
20260906064104 74 340 0.9 1.7 0.50 0.50 0.50 93 1011.5
20260906063604 74 340 0.9 1.7 0.48 0.48 0.48 93 1011.6
20260906062603 74 52 0.9 2.6 0.48 0.48 0.48 94 1011.4
20260906062104 74 67 0.9 2.6 0.47 0.47 0.47 93 1011.1
20260906061604 74 75 1.7 2.6 0.47 0.47 0.47 91 1010.9
20260906061103 75 57 0.0 1.7 0.45 0.45 0.45 90 1011.0
20260906060603 76 53 0.9 1.7 0.37 0.37 0.37 89 1011.5
20260906060104 77 53 0.0 2.6 0.24 0.24 0.24 86 1011.6
20260906055603 78 43 1.7 2.6 0.08 0.08 0.08 85 1011.8
20260906055103 80 336 2.6 5.2 0.03 0.03 0.03 81 1011.6
20260906054604 80 339 0.9 2.6 0.00 0.00 0.00 79 1011.4
20260906054103 80 341 0.0 0.9 0.00 0.00 0.00 80 1011.4
20260906053604 80 341 0.0 1.7 0.00 0.00 0.00 80 1011.1
20260906053103 80 341 0.0 2.6 0.00 0.00 0.00 81 1011.3
20260906052604 80 340 2.6 4.3 0.00 0.00 0.00 82 1011.3
20260906052103 80 71 0.9 2.6 0.00 0.00 0.00 81 1011.0
20260906051604 81 71 0.0 0.9 0.00 0.00 0.00 81 1010.8
20260906051107 81 71 0.9 1.7 0.00 0.00 0.00 79 1010.9
20260906045604 81 71 0.0 0.9 0.00 0.00 0.00 77 1010.6
20260906044603 81 71 0.9 1.7 0.00 0.00 0.00 75 1010.6
20260906044103 82 71 0.9 1.7 0.00 0.00 0.00 75 1010.8
20260906043104 83 71 0.0 1.7 0.00 0.00 0.00 72 1010.9
20260906042104 84 72 0.9 2.6 0.00 0.00 0.00 70 1010.9
20260906041604 84 77 0.9 2.6 0.00 0.00 0.00 70 1010.9
20260906041103 84 73 1.7 2.6 0.00 0.00 0.00 70 1010.9
20260906040603 84 110 2.6 5.2 0.00 0.00 0.00 70 1011.0
20260906035603 83 103 0.9 2.6 0.00 0.00 0.00 71 1011.1
20260906035103 83 103 0.9 2.6 0.00 0.00 0.00 71 1011.2
20260906034604 83 88 1.7 2.6 0.00 0.00 0.00 71 1011.1
20260906034103 82 90 1.7 2.6 0.00 0.00 0.00 72 1011.1
20260906033603 82 122 1.7 6.1 0.00 0.00 0.00 74 1011.1
20260906033103 81 118 0.9 2.6 0.00 0.00 0.00 75 1011.0
20260906032604 81 136 0.0 0.9 0.00 0.00 0.00 75 1011.0
20260906032104 81 136 0.0 0.0 0.00 0.00 0.00 75 1011.0
20260906031604 81 136 0.0 0.0 0.00 0.00 0.00 76 1010.9
20260906025604 82 136 0.0 1.7 0.00 0.00 0.00 74 1010.8
20260906025104 82 136 0.0 0.9 0.00 0.00 0.00 74 1010.8
20260906024604 82 136 0.0 0.9 0.00 0.00 0.00 73 1010.8
20260906024104 82 136 0.0 0.9 0.00 0.00 0.00 72 1010.6
20260906023104 82 136 0.9 2.6 0.00 0.00 0.00 73 1010.4
20260906022603 82 138 0.9 1.7 0.00 0.00 0.00 74 1010.4
20260906022103 82 138 0.9 1.7 0.00 0.00 0.00 77 1010.4
20260906021103 81 137 0.0 2.6 0.00 0.00 0.00 78 1010.2
20260906020105 80 268 0.0 0.9 0.00 0.00 0.00 84 1010.2
20260906015603 80 268 0.0 0.9 0.00 0.00 0.00 83 1010.2
20260906014604 80 268 0.0 0.9 0.00 0.00 0.00 83 1010.1
20260906013603 80 268 0.0 0.9 0.00 0.00 0.00 82 1009.8
20260906013104 81 268 0.0 0.9 0.00 0.00 0.00 82 1009.8
20260906012603 81 268 0.0 0.9 0.00 0.00 0.00 83 1009.8
20260906012104 81 268 0.0 0.9 0.00 0.00 0.00 82 1009.7
20260906011604 81 268 0.0 0.0 0.00 0.00 0.00 82 1009.6
20260906011104 81 268 0.0 0.9 0.00 0.00 0.00 82 1009.7
20260906010604 81 268 0.0 0.9 0.00 0.00 0.00 81 1009.6
20260906005104 81 268 0.0 0.0 0.00 0.00 0.00 80 1009.5
20260906004605 82 268 0.0 0.9 0.00 0.00 0.00 79 1009.5
20260906003604 82 268 0.0 0.9 0.00 0.00 0.00 78 1009.6
20260906003104 83 268 0.0 0.9 0.00 0.00 0.00 78 1009.6
20260906002604 83 268 0.0 0.9 0.00 0.00 0.00 75 1009.5
20260906001104 85 268 0.9 2.6 0.00 0.00 0.00 70 1010.0
20260906000604 86 271 0.0 1.7 0.00 0.00 0.00 67 1010.2
20260905235103 90 318 1.7 2.6 0.00 0.00 0.00 56 1010.4
20260905234604 90 104 0.9 1.7 0.00 0.00 0.00 56 1009.8
20260905234103 90 102 0.9 2.6 0.00 0.00 0.00 54 1009.4
20260905233604 90 101 0.9 2.6 0.00 0.00 0.00 54 1009.5
20260905233103 90 104 1.7 2.6 0.00 0.00 0.00 53 1009.4
20260905232603 91 112 1.7 4.3 0.00 0.00 0.00 53 1009.4
20260905232104 91 87 1.7 5.2 0.00 0.00 0.00 52 1009.3
20260905231603 91 96 1.7 2.6 0.00 0.00 0.00 52 1009.3
20260905231103 91 86 0.9 2.6 0.00 0.00 0.00 52 1009.3
20260905230604 91 130 1.7 2.6 0.00 0.00 0.00 52 1009.3
20260905230103 91 116 1.7 5.2 0.00 0.00 0.00 52 1009.2
20260905225603 92 81 1.7 5.2 0.00 0.00 0.00 51 1009.1
20260905225104 92 81 1.7 6.1 0.00 0.00 0.00 51 1009.1
20260905224603 93 85 2.6 6.1 0.00 0.00 0.00 50 1009.1
20260905224104 94 79 3.5 7.8 0.00 0.00 0.00 48 1009.3
20260905223604 96 84 2.6 6.1 0.00 0.00 0.00 46 1009.2
20260905223103 97 120 1.7 4.3 0.00 0.00 0.00 43 1009.2
20260905222603 99 125 3.5 8.7 0.00 0.00 0.00 42 1009.3
20260905222104 99 355 0.9 2.6 0.00 0.00 0.00 46 1009.0
20260905221603 99 349 0.0 0.9 0.00 0.00 0.00 46 1009.0
20260905221104 99 0 0.9 2.6 0.00 0.00 0.00 44 1009.1
20260905220604 99 354 0.9 2.6 0.00 0.00 0.00 46 1009.1
20260905220103 99 355 0.9 2.6 0.00 0.00 0.00 44 1009.1
20260905215604 99 355 0.9 1.7 0.00 0.00 0.00 44 1009.0
20260905215104 99 355 1.7 2.6 0.00 0.00 0.00 45 1009.1
20260905214602 99 267 0.9 2.6 0.00 0.00 0.00 44 1009.1
20260905214102 99 265 1.7 2.6 0.00 0.00 0.00 44 1009.1
20260905213602 99 279 1.7 2.6 0.00 0.00 0.00 43 1009.2
20260905213102 99 335 0.9 1.7 0.00 0.00 0.00 43 1009.2
20260905212602 99 325 1.7 2.6 0.00 0.00 0.00 42 1009.2
20260905212102 99 317 1.7 2.6 0.00 0.00 0.00 44 1009.2
20260905211602 99 309 0.9 2.6 0.00 0.00 0.00 44 1009.1
20260905211102 99 299 0.9 2.6 0.00 0.00 0.00 44 1009.1
20260905210602 99 305 0.0 2.6 0.00 0.00 0.00 46 1009.1
20260905205601 99 333 1.7 2.6 0.00 0.00 0.00 43 1009.2
20260905204602 99 265 0.9 1.7 0.00 0.00 0.00 45 1009.3
20260905203601 98 300 1.7 2.6 0.00 0.00 0.00 45 1009.4
20260905203102 99 304 2.6 4.3 0.00 0.00 0.00 44 1009.5
20260905201602 99 259 0.9 2.6 0.00 0.00 0.00 46 1009.7
20260905201102 99 256 1.7 5.2 0.00 0.00 0.00 46 1009.8
20260905200601 99 327 1.7 2.6 0.00 0.00 0.00 46 1009.9
20260905195601 98 167 1.7 2.6 0.00 0.00 0.00 46 1010.1
20260905195102 98 283 1.7 2.6 0.00 0.00 0.00 46 1010.2
20260905194102 98 286 0.9 2.6 0.00 0.00 0.00 47 1010.3
20260905193102 98 266 0.9 2.6 0.00 0.00 0.00 47 1010.4
20260905192602 98 265 1.7 7.0 0.00 0.00 0.00 46 1010.5
20260905192101 98 280 0.9 2.6 0.00 0.00 0.00 48 1010.5
20260905191602 97 277 0.0 2.6 0.00 0.00 0.00 51 1010.6
20260905191102 97 348 1.7 2.6 0.00 0.00 0.00 48 1010.8
20260905190602 97 281 0.9 2.6 0.00 0.00 0.00 50 1010.9
20260905185601 97 275 1.7 2.6 0.00 0.00 0.00 50 1011.0
20260905184602 97 274 0.9 2.6 0.00 0.00 0.00 49 1011.1
20260905184101 97 282 0.9 2.6 0.00 0.00 0.00 50 1011.2
20260905183602 97 307 0.9 4.3 0.00 0.00 0.00 50 1011.3
20260905183101 97 344 0.9 2.6 0.00 0.00 0.00 54 1011.3
20260905182102 97 356 1.7 2.6 0.00 0.00 0.00 52 1011.4
20260905181602 97 22 0.9 2.6 0.00 0.00 0.00 54 1011.4
20260905181101 96 257 0.9 2.6 0.00 0.00 0.00 57 1011.5
20260905180601 96 259 1.7 2.6 0.00 0.00 0.00 52 1011.6
20260905175602 96 247 1.7 2.6 0.00 0.00 0.00 52 1011.7
20260905174602 96 319 1.7 2.6 0.00 0.00 0.00 53 1011.8
20260905174102 95 315 0.9 1.7 0.00 0.00 0.00 54 1011.8
20260905173602 95 314 1.7 2.6 0.00 0.00 0.00 55 1011.9
20260905173102 95 313 0.9 1.7 0.00 0.00 0.00 58 1011.9
20260905172601 95 313 2.6 2.6 0.00 0.00 0.00 54 1012.0
20260905172102 95 291 0.9 2.6 0.00 0.00 0.00 58 1012.1
20260905171601 95 325 0.9 1.7 0.00 0.00 0.00 56 1012.1
20260905171102 94 326 0.9 2.6 0.00 0.00 0.00 54 1012.2
20260905170602 94 222 0.0 2.6 0.00 0.00 0.00 59 1012.2
20260905165602 94 172 1.7 4.3 0.00 0.00 0.00 58 1012.2
20260905165102 93 274 0.9 2.6 0.00 0.00 0.00 59 1012.3
20260905164602 93 274 0.9 2.6 0.00 0.00 0.00 61 1012.4
20260905163602 92 271 1.7 2.6 0.00 0.00 0.00 58 1012.6
20260905162602 92 268 1.7 2.6 0.00 0.00 0.00 63 1012.7
20260905162102 92 287 0.9 2.6 0.00 0.00 0.00 62 1012.8
20260905161601 92 277 0.9 2.6 0.00 0.00 0.00 66 1012.8
20260905160602 92 268 0.9 1.7 0.00 0.00 0.00 63 1012.9
20260905155601 91 263 0.9 1.7 0.00 0.00 0.00 65 1013.0
20260905155102 90 263 0.0 1.7 0.00 0.00 0.00 68 1013.1
20260905154602 90 263 1.7 2.6 0.00 0.00 0.00 65 1013.2
20260905154103 90 261 1.7 2.6 0.00 0.00 0.00 65 1013.1
20260905153602 90 355 0.9 1.7 0.00 0.00 0.00 66 1013.1
20260905153102 90 355 0.9 2.6 0.00 0.00 0.00 66 1013.1
20260905151603 88 267 0.9 1.7 0.00 0.00 0.00 72 1013.2
20260905151102 88 266 0.9 1.7 0.00 0.00 0.00 72 1013.1
20260905145601 87 265 0.9 2.6 0.00 0.00 0.00 73 1013.1
20260905145102 87 268 0.9 1.7 0.00 0.00 0.00 75 1013.1
20260905144602 86 268 0.9 1.7 0.00 0.00 0.00 75 1013.2
20260905144103 86 267 0.9 1.7 0.00 0.00 0.00 75 1013.2
20260905143101 85 267 0.9 1.7 0.00 0.00 0.00 76 1013.3
20260905142102 85 269 0.9 0.9 0.00 0.00 0.00 78 1013.5
20260905141603 84 269 0.9 1.7 0.00 0.00 0.00 78 1013.5